Location: Bishopstone
(51.0167°N, 1.9000°W)
Time: 02:04:46
(UTC+00:00)

Resurs 01 Rocket - Pass Details

Date: 16 September 2019
Orbit: 635 x 644 km, 98.0° (Epoch: 22 October)

Event Time Altitude Azimuth Distance (km) Brightness Sun altitude
Exits shadow 21:33:33 17° 239° (WSW) 1,614 3.8 -27.8°
Maximum altitude 21:35:13 21° 269° (W) 1,451 3.8 -28.0°
Drops below altitude 10° 21:38:36 10° 318° (NW) 2,047 5.2 -28.4°
Sets 21:41:18 0° 335° (NNW) 2,964 6.2 -28.6°
